Date String (YYYY-MM-DD hh:mm:ss) UTC,Instrument flags,absolute air pressure of the measurement (hPa),sample flow rate (lpm),inlet stack bypass flow (lpm),air temperature of the measurement (°C),ambient temperature measured by the external sensor (°C),aerosol sample conditioner tube jacket temperature (°C),OPC LED temperature (°C),internal box temperature (°C),relative humidity of the measurement (%),span deviation,mass concentration of particles derived from Lorenz-Mie calculation of OPC scattering (μg/m³),mass concentration of particles derived from Lorenz-Mie calculation of OPC scattering (μg/m³),mass concentration of particles derived from Lorenz-Mie calculation of OPC scattering (μg/m³)
DateTimeUTC,F1_M11,P_M11,Q1_M11,Q2_M11,T1_M11,T2_M11,T3_M11,T4_M11,T5_M11,U1_M11,ZSPAN_M11,X2_M11,X0_M11,X1_M11
2023-08-04 03:00:00,SystemResetWarning,0833.0,5.01,000.00,031.8,027.9,000.0,039.5,031.6,33.8,0000.0,0003.81,0009.34,0003.17
2023-08-04 03:01:00,SystemResetWarning,0833.1,5.01,000.00,031.8,028.1,000.0,039.5,031.7,33.5,0000.0,0003.81,0009.34,0003.18
2023-08-04 03:02:00,SystemResetWarning,0833.2,5.00,000.00,031.8,028.3,000.0,039.6,031.7,33.6,0000.0,0003.81,0009.18,0003.19
2023-08-04 03:03:00,SystemResetWarning,0833.2,4.99,000.00,031.8,027.9,000.0,039.6,031.7,34.0,0000.0,0003.82,0008.24,0003.22
2023-08-04 03:04:00,SystemResetWarning,0833.2,4.98,000.00,031.7,026.1,000.0,039.4,031.5,33.5,0000.0,0003.84,0008.15,0003.25
2023-08-04 03:05:00,SystemResetWarning,0833.2,5.00,000.00,031.6,025.0,000.0,039.3,031.3,33.4,0000.0,0003.84,0008.50,0003.27
2023-08-04 03:06:00,SystemResetWarning,0833.1,5.01,000.00,031.5,024.8,000.0,039.3,031.0,33.5,0000.0,0003.80,0008.56,0003.28
2023-08-04 03:07:00,SystemResetWarning,0833.2,5.02,000.00,031.3,025.2,000.0,039.3,030.9,33.9,0000.0,0003.82,0008.82,0003.29
2023-08-04 03:08:00,SystemResetWarning,0833.2,5.00,000.00,031.2,025.7,000.0,039.3,031.0,34.6,0000.0,0003.83,0008.83,0003.31
2023-08-04 03:09:00,SystemResetWarning,0833.1,4.98,000.00,031.1,026.1,000.0,039.3,031.0,35.1,0000.0,0003.82,0008.53,0003.32
2023-08-04 03:10:00,SystemResetWarning,0833.2,5.03,000.00,031.2,026.6,000.0,039.3,031.2,35.0,0000.0,0003.81,0008.42,0003.32
2023-08-04 03:11:00,SystemResetWarning,0833.2,4.96,000.00,031.4,026.9,000.0,039.2,031.4,34.4,0000.0,0003.80,0008.34,0003.33
2023-08-04 03:12:00,SystemResetWarning,0833.3,5.02,000.00,031.5,027.3,000.0,039.2,031.4,33.7,0000.0,0003.79,0007.91,0003.33
2023-08-04 03:13:00,SystemResetWarning,0833.2,5.00,000.00,031.5,027.5,000.0,039.3,031.5,34.1,0000.0,0003.79,0008.10,0003.30
2023-08-04 03:14:00,SystemResetWarning,0833.3,4.99,000.00,031.5,027.7,000.0,039.3,031.5,34.3,0000.0,0003.75,0008.00,0003.27
2023-08-04 03:15:00,SystemResetWarning,0833.3,5.00,000.00,031.5,027.9,000.0,039.3,031.6,34.3,0000.0,0003.66,0008.20,0003.22
2023-08-04 03:16:00,SystemResetWarning,0833.3,5.00,000.00,031.5,028.1,000.0,039.4,031.6,34.2,0000.0,0003.65,0007.80,0003.20
2023-08-04 03:17:00,SystemResetWarning,0833.4,5.00,000.00,031.5,028.2,000.0,039.4,031.7,34.1,0000.0,0003.66,0007.75,0003.17
2023-08-04 03:18:00,SystemResetWarning,0833.4,5.00,000.00,031.5,028.3,000.0,039.4,031.7,33.9,0000.0,0003.64,0007.50,0003.13
2023-08-04 03:19:00,SystemResetWarning,0833.4,4.99,000.00,031.5,028.0,000.0,039.4,031.7,34.0,0000.0,0003.65,0007.66,0003.10
2023-08-04 03:20:00,SystemResetWarning,0833.4,5.00,000.00,031.5,026.2,000.0,039.3,031.5,34.0,0000.0,0003.64,0007.68,0003.08
2023-08-04 03:21:00,SystemResetWarning,0833.3,5.00,000.00,031.4,025.0,000.0,039.1,031.2,34.0,0000.0,0003.63,0007.69,0003.06
2023-08-04 03:22:00,SystemResetWarning,0833.3,5.00,000.00,031.2,024.8,000.0,039.1,030.9,34.3,0000.0,0003.60,0007.63,0003.03
2023-08-04 03:23:00,SystemResetWarning,0833.3,4.99,000.00,031.0,025.1,000.0,039.1,030.8,34.9,0000.0,0003.59,0007.62,0003.01
2023-08-04 03:24:00,SystemResetWarning,0833.3,5.01,000.00,031.0,025.6,000.0,039.1,030.9,35.4,0000.0,0003.58,0007.32,0003.03
2023-08-04 03:25:00,SystemResetWarning,0833.4,5.01,000.00,031.2,026.1,000.0,039.1,031.1,34.8,0000.0,0003.61,0007.37,0003.05
2023-08-04 03:26:00,SystemResetWarning,0833.4,4.97,000.00,031.3,026.5,000.0,039.1,031.3,34.3,0000.0,0003.66,0006.91,0003.08
2023-08-04 03:27:00,SystemResetWarning,0833.4,5.03,000.00,031.4,026.9,000.0,039.1,031.3,34.1,0000.0,0003.65,0007.08,0003.09
2023-08-04 03:28:00,SystemResetWarning,0833.4,4.99,000.00,031.5,027.2,000.0,039.2,031.4,33.9,0000.0,0003.64,0007.44,0003.11
2023-08-04 03:29:00,SystemResetWarning,0833.4,4.99,000.00,031.5,027.5,000.0,039.2,031.4,33.8,0000.0,0003.65,0007.38,0003.13
2023-08-04 03:30:00,SystemResetWarning,0833.4,5.01,000.00,031.5,027.7,000.0,039.2,031.5,33.6,0000.0,0003.66,0007.31,0003.15
2023-08-04 03:31:00,SystemResetWarning,0833.4,5.02,000.00,031.5,027.9,000.0,039.3,031.5,33.4,0000.0,0003.71,0007.47,0003.16
2023-08-04 03:32:00,SystemResetWarning,0833.4,5.00,000.00,031.5,028.1,000.0,039.3,031.6,33.5,0000.0,0003.75,0007.60,0003.16
2023-08-04 03:33:00,SystemResetWarning,0833.4,5.00,000.00,031.5,028.2,000.0,039.4,031.6,33.2,0000.0,0003.78,0007.72,0003.16
2023-08-04 03:34:00,SystemResetWarning,0833.4,5.00,000.00,031.5,028.3,000.0,039.4,031.7,32.9,0000.0,0003.78,0007.71,0003.15
2023-08-04 03:35:00,SystemResetWarning,0833.5,4.99,000.00,031.5,027.9,000.0,039.4,031.7,32.9,0000.0,0003.78,0007.71,0003.16
2023-08-04 03:36:00,SystemResetWarning,0833.4,4.99,000.00,031.5,026.3,000.0,039.3,031.4,33.5,0000.0,0003.75,0007.75,0003.15
2023-08-04 03:37:00,SystemResetWarning,0833.4,5.02,000.00,031.4,025.6,000.0,039.2,031.2,33.9,0000.0,0003.72,0007.82,0003.14
2023-08-04 03:38:00,SystemResetWarning,0833.4,4.99,000.00,031.2,025.7,000.0,039.2,031.0,34.2,0000.0,0003.75,0007.59,0003.15
2023-08-04 03:39:00,SystemResetWarning,0833.4,4.99,000.00,031.1,026.0,000.0,039.2,031.0,34.2,0000.0,0003.77,0007.88,0003.15
2023-08-04 03:40:00,SystemResetWarning,0833.4,5.00,000.00,031.0,026.4,000.0,039.2,031.1,34.1,0000.0,0003.76,0008.37,0003.16
2023-08-04 03:41:00,SystemResetWarning,0833.4,5.01,000.00,031.0,026.8,000.0,039.2,031.2,33.8,0000.0,0003.77,0008.61,0003.15
2023-08-04 03:42:00,SystemResetWarning,0833.5,5.01,000.00,030.9,027.1,000.0,039.2,031.3,33.9,0000.0,0003.75,0008.63,0003.14
2023-08-04 03:43:00,SystemResetWarning,0833.4,5.00,000.00,030.9,027.4,000.0,039.2,031.3,33.9,0000.0,0003.70,0008.97,0003.14
2023-08-04 03:44:00,SystemResetWarning,0833.4,5.00,000.00,030.9,027.7,000.0,039.2,031.4,33.9,0000.0,0003.69,0009.14,0003.16
2023-08-04 03:45:00,SystemResetWarning,0833.4,5.00,000.00,030.9,027.9,000.0,039.1,031.4,34.0,0000.0,0003.71,0009.18,0003.16
2023-08-04 03:46:00,SystemResetWarning,0833.4,5.00,000.00,030.9,028.0,000.0,039.1,031.5,34.5,0000.0,0003.73,0009.38,0003.16
2023-08-04 03:47:00,SystemResetWarning,0833.4,5.00,000.00,030.9,028.2,000.0,039.1,031.5,34.8,0000.0,0003.74,0009.41,0003.16
2023-08-04 03:48:00,SystemResetWarning,0833.4,4.98,000.00,030.9,028.2,000.0,039.1,031.6,35.2,0000.0,0003.76,0009.31,0003.17
2023-08-04 03:49:00,SystemResetWarning,0833.3,5.01,000.00,031.0,026.7,000.0,039.0,031.5,35.7,0000.0,0003.77,0009.40,0003.16
2023-08-04 03:50:00,SystemResetWarning,0833.2,4.99,000.00,031.2,025.7,000.0,038.8,031.4,35.5,0000.0,0003.74,0008.96,0003.14
2023-08-04 03:51:00,SystemResetWarning,0833.2,5.00,000.00,031.4,025.6,000.0,038.8,031.2,35.3,0000.0,0003.71,0008.40,0003.13
2023-08-04 03:52:00,SystemResetWarning,0833.2,5.03,000.00,031.7,025.9,000.0,038.9,031.3,34.9,0000.0,0003.73,0008.09,0003.14
2023-08-04 03:53:00,SystemResetWarning,0833.2,4.97,000.00,031.9,026.3,000.0,039.0,031.4,34.4,0000.0,0003.71,0008.00,0003.14
2023-08-04 03:54:00,SystemResetWarning,0833.2,5.02,000.00,032.0,026.7,000.0,039.1,031.5,34.0,0000.0,0003.73,0008.10,0003.15
2023-08-04 03:55:00,SystemResetWarning,0833.2,5.01,000.00,032.1,027.1,000.0,039.2,031.5,33.8,0000.0,0003.75,0008.24,0003.15
2023-08-04 03:56:00,SystemResetWarning,0833.2,5.00,000.00,032.2,027.4,000.0,039.3,031.6,33.7,0000.0,0003.75,0008.20,0003.14
2023-08-04 03:57:00,SystemResetWarning,0833.2,5.00,000.00,032.2,027.6,000.0,039.4,031.6,33.7,0000.0,0003.72,0008.27,0003.15
2023-08-04 03:58:00,SystemResetWarning,0833.2,5.01,000.00,032.2,027.9,000.0,039.5,031.7,33.6,0000.0,0003.71,0008.06,0003.15
2023-08-04 03:59:00,SystemResetWarning,0833.2,5.00,000.00,032.2,028.1,000.0,039.6,031.8,33.6,0000.0,0003.72,0008.21,0003.17
